, IN

(GMT )
Eagle Creek

Weather History for KEYE - June, 2013

Change the Weather History Date:

Friday, June 28, 2013

  Actual Average Record
Temperature  
Mean Temperature 74 °F 75 °F  
Max Temperature 83 °F 84 °F 103 °F (2012)
Min Temperature 65 °F 66 °F 57 °F (2015)
Degree Days  
Heating Degree Days 0 0  
Month to date heating degree days 14 12  
Since 1 June heating degree days 14 12  
Since 1 July heating degree days 5564 5346  
Cooling Degree Days 9 10  
Month to date cooling degree days 197 214  
Year to date cooling degree days 308 298  
Since 1 June cooling degree days 197 214  
Growing Degree Days 23 (Base 50)    
Moisture  
Dew Point 63 °F    
Average Humidity 70    
Maximum Humidity 93    
Minimum Humidity 46    
Precipitation  
Precipitation 0.41 in 0.13 in 0.41 in (2013)
Month to date precipitation 4.57 4.13  
Year to date precipitation 23.41 20.94  
Sea Level Pressure  
Sea Level Pressure 29.66 in    
Wind  
Wind Speed 10 mph (WNW)    
Max Wind Speed 30 mph    
Max Gust Speed 40 mph    
Visibility 9 miles    
Events Rain , Thunderstorm    
T = Trace of Precipitation, MM = Missing Value Source: NWS Daily Summary

Daily Weather History Graph

Daily Weather History Graph

Search for Another Location

Airport or City:

Trip Planner

Search our weather history database for the weather conditions in past years. The results will help you decide how hot, cold, wet, or windy it might be!

Date:

Astronomy

Jun. 28, 2013 Rise Set
Actual Time 6:19 AM EDT 9:17 PM EDT
Civil Twilight 5:46 AM EDT 9:50 PM EDT
Nautical Twilight 5:05 AM EDT 10:31 PM EDT
Astronomical Twilight 4:17 AM EDT 11:19 PM EDT
Moon 12:14 AM EDT (6/28) 12:25 PM EDT (6/28)
Length of Visible Light 16h 03m
Length of Day
14h 58m
Waning Gibbous, 66% of the Moon is Illuminated
Jun 28
Waning Gibbous
Jun 30
Last Quarter
Jul 8
New
Jul 15
First Quarter
Jul 22
Full

Hourly Weather History & Observations

Time (EDT) Temp. Heat Index Dew Point Humidity Pressure Visibility Wind Dir Wind Speed Gust Speed Precip Events Conditions
12:53 AM 75.9 °F - 66.9 °F 74% 29.70 in 10.0 mi West 9.2 mph - N/A   Clear
1:53 AM 73.9 °F - 66.9 °F 79% 29.71 in 10.0 mi West 11.5 mph - N/A   Clear
2:53 AM 73.0 °F - 66.0 °F 79% 29.69 in 10.0 mi West 9.2 mph - N/A   Clear
3:53 AM 72.0 °F - 66.0 °F 81% 29.68 in 10.0 mi West 10.4 mph - N/A   Partly Cloudy
4:53 AM 71.1 °F - 64.9 °F 81% 29.68 in 10.0 mi WNW 10.4 mph - N/A   Scattered Clouds
5:53 AM 70.0 °F - 64.0 °F 81% 29.68 in 10.0 mi West 9.2 mph - N/A   Scattered Clouds
6:53 AM 69.1 °F - 64.0 °F 84% 29.68 in 10.0 mi West 9.2 mph - N/A   Clear
7:53 AM 71.1 °F - 64.0 °F 78% 29.69 in 10.0 mi West 10.4 mph - N/A   Clear
8:53 AM 73.0 °F - 64.0 °F 73% 29.69 in 10.0 mi WNW 11.5 mph - N/A   Clear
9:53 AM 75.0 °F - 64.0 °F 69% 29.68 in 10.0 mi West 10.4 mph - N/A   Clear
10:53 AM 77.0 °F - 64.0 °F 64% 29.68 in 10.0 mi WNW 11.5 mph 17.3 mph N/A   Clear
11:53 AM 80.1 °F 81.7 °F 64.0 °F 58% 29.67 in 10.0 mi WNW 10.4 mph - N/A   Clear
12:53 PM 80.1 °F 81.2 °F 62.1 °F 54% 29.67 in 10.0 mi WNW 12.7 mph 21.9 mph N/A   Clear
1:53 PM 82.9 °F 83.2 °F 60.1 °F 46% 29.65 in 10.0 mi NW 11.5 mph 25.3 mph N/A   Scattered Clouds
2:53 PM 82.9 °F 82.8 °F 59.0 °F 44% 29.62 in 10.0 mi West 12.7 mph 23.0 mph N/A   Scattered Clouds
3:18 PM 78.8 °F - 59.0 °F 51% 29.66 in 10.0 mi WNW 21.9 mph 31.1 mph 0.00 in Rain , Thunderstorm Light Rain
3:32 PM 69.8 °F - 64.4 °F 83% 29.66 in 10.0 mi North 13.8 mph 25.3 mph 0.03 in Rain Light Rain
3:41 PM 69.8 °F - 64.4 °F 83% 29.65 in 10.0 mi North 11.5 mph - 0.03 in   Mostly Cloudy
3:53 PM 69.1 °F - 63.0 °F 81% 29.64 in 9.0 mi North 12.7 mph - 0.03 in Rain Light Rain
4:00 PM 66.2 °F - 62.6 °F 88% 29.66 in 1.8 mi North 17.3 mph 24.2 mph 0.14 in Rain , Thunderstorm Heavy Thunderstorms and Rain
4:12 PM 66.2 °F - 64.4 °F 94% 29.65 in 3.0 mi North 10.4 mph 19.6 mph 0.23 in Rain , Thunderstorm Light Thunderstorms and Rain
4:15 PM 68.0 °F - 64.4 °F 88% 29.65 in 2.5 mi West 19.6 mph 28.8 mph 0.28 in Rain Light Rain
4:22 PM 68.0 °F - 64.4 °F 88% 29.63 in 2.0 mi Variable 4.6 mph 28.8 mph 0.31 in Rain , Thunderstorm Light Thunderstorms and Rain
4:31 PM 69.8 °F - 64.4 °F 83% 29.64 in 10.0 mi SW 6.9 mph - 0.31 in   Mostly Cloudy
4:53 PM 77.0 °F - 66.0 °F 69% 29.61 in 10.0 mi WNW 5.8 mph - 0.31 in   Partly Cloudy
5:53 PM 77.0 °F - 62.1 °F 60% 29.61 in 10.0 mi NW 8.1 mph - N/A   Mostly Cloudy
6:53 PM 77.0 °F - 62.1 °F 60% 29.60 in 10.0 mi WNW 10.4 mph - N/A   Mostly Cloudy
7:19 PM 78.8 °F - 60.8 °F 54% 29.62 in 10.0 mi WNW 9.2 mph - N/A   Partly Cloudy
7:53 PM 79.0 °F - 59.0 °F 50% 29.61 in 10.0 mi WNW 10.4 mph - N/A   Clear
8:53 PM 66.9 °F - 63.0 °F 87% 29.65 in 2.5 mi NNW 26.5 mph 40.3 mph 0.05 in Rain Heavy Rain
9:07 PM 66.2 °F - 64.4 °F 94% 29.66 in 6.0 mi North 13.8 mph 23.0 mph 0.01 in Rain Light Rain
9:20 PM 66.2 °F - 62.6 °F 88% 29.67 in 10.0 mi North 10.4 mph - 0.02 in Thunderstorm Overcast
9:39 PM 66.2 °F - 62.6 °F 88% 29.66 in 10.0 mi NW 6.9 mph - 0.02 in   Overcast
9:53 PM 68.0 °F - 63.0 °F 84% 29.64 in 10.0 mi NW 5.8 mph - 0.02 in   Overcast
10:53 PM 64.9 °F - 63.0 °F 93% 29.63 in 10.0 mi SW 3.5 mph - 0.00 in   Overcast
11:53 PM 64.9 °F - 63.0 °F 93% 29.62 in 10.0 mi SW 4.6 mph - N/A   Mostly Cloudy